This is the latest recevied weather packets stored in our database for station/object OK3MS-5. If no packets are shown the sender has not sent any weather packets the latest 10 day(s).
| Time | Temp. | Humidity | Pressure | Rain* | Wind** | Luminosity | Snow |
|---|---|---|---|---|---|---|---|
| 1777264805 | 1.11° C | 82% | 1024.7 hPa | 0 mm | - | 24 W/m² | - |
| 1777264510 | 0.56° C | 83% | 1024.7 hPa | 0 mm | - | 22 W/m² | - |
| 1777264205 | 0.56° C | 85% | 1024.7 hPa | 0 mm | - | 21 W/m² | - |
| 1777263905 | 0.56° C | 88% | 1024.7 hPa | 0 mm | - | 18 W/m² | - |
| 1777263605 | 0° C | 88% | 1024.6 hPa | 0 mm | - | 15 W/m² | - |
| 1777263303 | 0° C | 86% | 1024.8 hPa | 0 mm | - | 13 W/m² | - |
| 1777263006 | 0° C | 87% | 1024.6 hPa | 0 mm | - | 10 W/m² | - |
| 1777262704 | 0° C | 88% | 1024.8 hPa | 0 mm | - | 7 W/m² | - |
| 1777262404 | 0° C | 86% | 1024.6 hPa | 0 mm | - | 5 W/m² | - |
| 1777262110 | 0° C | 86% | 1024.7 hPa | 0 mm | - | 4 W/m² | - |
| 1777261804 | 0° C | 85% | 1024.6 hPa | 0 mm | - | 3 W/m² | - |
| 1777261511 | 0° C | 85% | 1024.7 hPa | 0 mm | - | 2 W/m² | - |
| 1777261205 | 0° C | 86% | 1024.7 hPa | 0 mm | - | 1 W/m² | - |
| 1777260909 | 0° C | 85% | 1024.7 hPa | 0 mm | - | 1 W/m² | - |
| 1777260604 | 0° C | 85% | 1024.7 hPa | 0 mm | - | 0 W/m² | - |
| 1777260310 | 0° C | 85% | 1024.7 hPa | 0 mm | - | 0 W/m² | - |
| 1777260005 | 0° C | 85% | 1024.7 hPa | 0 mm | - | 0 W/m² | - |
| 1777259705 | 0° C | 86% | 1024.7 hPa | 0 mm | - | 0 W/m² | - |
| 1777259402 | 0° C | 86% | 1024.9 hPa | 0 mm | - | 0 W/m² | - |
| 1777259110 | 0° C | 86% | 1024.8 hPa | 0 mm | - | 0 W/m² | - |
| 1777258802 | -0.56° C | 88% | 1025 hPa | 0 mm | - | 0 W/m² | - |
| 1777258510 | -0.56° C | 88% | 1025 hPa | 0 mm | - | 0 W/m² | - |
| 1777258203 | -0.56° C | 89% | 1025 hPa | 0 mm | - | 0 W/m² | - |
| 1777257903 | 0° C | 88% | 1024.8 hPa | 0 mm | - | 0 W/m² | - |
| 1777257610 | 0.56° C | 86% | 1024.7 hPa | 0 mm | - | 0 W/m² | - |
* Rain latest hour (hover to see other rain measurements)
** Current wind speed in m/s (hover to see current wind gust speed)